map of TBZ home
TBZ - Airport
Location
City:  Tabriz, Azarbayjan-e Sharqi, Iran
Name:Tabriz International Airport
ICAO:OITT
IATA:TBZ

Details
Type:Airport (Aerodrome, Airfield)
Use:Public/Civil, Military, International (customs port of entry)
Latitude:3808'02"N (38.133889)
Longitude:4614'06"E (46.235000)
Datum:WGS 1984
Elevation:4459 ft (1359 m)
Variation:5.72E (WMM2015v2 magnetic declination)
0.07 annual change
Runways:2
Longest:11825 × 148 ft (3604 × 45 m), paved

Time
Time Zone:UTC+3:30 (DST+4:30)
Local Time:

Weather
METAR:OITT 041400Z 36008KT 9999 FEW032 04/M05 Q1029 A3039 NOSIG
TAF:OITT 041100Z 0412/0518 04006KT 7000 FEW030
TEMPO 0412/0414 FEW035TCU SCT040 BKN100
BECMG 0420/0422 4000 HZ
BECMG 0504/0506 7000 FEW040 SCT100

Related Locations
Nearby:
Farthest:GMR: 11391 mi / 18332 km
Mangareva [Totegegie], Gambier Islands, PF

Find:

   beyond  
but within

Other Information
Maps:
NOTAMs:
Links:
Sources:

  
  • flag of Iran
  

Sectional Chart

Flight Planning
at skyvector.com

Satellite Image

Google Maps Satellite view

 

Copyright © 2004-2019 Karl L. Swartz. All rights reserved.
The Great Circle Mapper name and logo are trademarks of the Great Circle Mapper.
All other trademarks mentioned herein belong to their respective owners.
Please see credits for attibutions and further copyright information.

  Follow gcmap on Facebook Follow gcmap on Twitter GCmap on LinkedIn

hCard Microformat

Geo Microformat